Content
SEND FEEDBACK

Daily
Averages
Monthly
Summary
United States of America

HOBART MILLS, CALIFORNIA


Home > North America > United States > California
Elevation: 6350 feet     Latitude: 39 26N     Longitude: 120 14W

WEATHER
 
SELECT A DAY
Number of Records: 282,497;   Date Range: 1/1/95 - 8/30/14
 
SHARE

PRINT THIS DATA

[ ← Previous Day ]
WEATHER ALMANAC - JANUARY 23, 2013
[ Next Day → ]
[ °C ]   °F
Weather ElementAverageHighLow
Temperature33 °F46.4 °F (9:55 am)19.4 °F (7:55 am)
Dewpoint20.3 °F30.2 °F (10:55 pm)8.6 °F (9:55 am)
Humidity63.6 %87 % (10:55 pm)22 % (9:55 am)
Barometer30.15 in30.18 in (12:35 am)30.11 in (2:50 pm)
Wind Speed7 mph21.9 mph (2:55 pm)
Wind Gust39.1 mph (8:55 am)
Weather ElementAverage
Visibility10 mi
Wind DirectionESE (126 °)

Weather ElementTotal
Precipitation---
Heating Degree Days32.1 (Base 65)
Averaged from 47 records on January 23, 2013
WEATHER CONDITIONS BREAKOUT
WIND DIRECTION BREAKOUT
WEATHER BY HOUR - JANUARY 23, 2013
[ °C ]   °F
Local TimeTemperatureDewpointHumidityBarometerVisibilityWind DirectionWind SpeedGust SpeedPrecipitationEventsConditions
12:35 AM23.0 °F17.6 °F80 %30.18 in10.0 miNE (40°)3.5 mphClear
12:55 AM23.0 °F17.6 °F80 %30.18 in10.0 miSE (130°)3.5 mphClear
1:15 AM23.0 °F17.6 °F80 %30.17 in10.0 miCalmClear
1:35 AM23.0 °F17.6 °F80 %30.17 in10.0 miCalmClear
1:55 AM24.8 °F17.6 °F74 %30.17 in10.0 miCalmClear
2:15 AM24.8 °F17.6 °F74 %30.16 in10.0 miCalmClear
2:35 AM23.0 °F17.6 °F80 %30.16 in10.0 miCalmClear
2:55 AM24.8 °F17.6 °F74 %30.16 in10.0 miCalmClear
3:15 AM24.8 °F17.6 °F74 %30.15 in10.0 miNE (50°)3.5 mphClear
3:35 AM23.0 °F17.6 °F80 %30.15 in10.0 miNNE (30°)3.5 mphClear
3:55 AM23.0 °F17.6 °F80 %30.14 in10.0 miCalmClear
4:15 AM23.0 °F17.6 °F80 %30.14 in10.0 miCalmClear
4:35 AM24.8 °F17.6 °F74 %30.13 in10.0 miNNW (330°)3.5 mphClear
4:55 AM24.8 °F17.6 °F74 %30.12 in10.0 miCalmClear
5:15 AM24.8 °F17.6 °F74 %30.13 in10.0 miCalmClear
5:35 AM24.8 °F17.6 °F74 %30.13 in10.0 miCalmClear
6:45 AM23.0 °F15.8 °F74 %30.13 in10.0 miCalmMostly Cloudy
7:55 AM19.4 °F15.8 °F86 %30.13 in10.0 miCalmOvercast
8:55 AM30.2 °F14.0 °F51 %30.14 in10.0 miSouth (170°)19.6 mph39.1 mphOvercast
9:55 AM46.4 °F8.6 °F22 %30.15 in10.0 miSSW (200°)17.3 mph31.1 mphMostly Cloudy
10:55 AM46.4 °F10.4 °F23 %30.16 in10.0 miSouth (180°)15.0 mph33.4 mphMostly Cloudy
11:55 AM46.4 °F10.4 °F23 %30.14 in10.0 miSouth (180°)11.5 mph25.3 mphMostly Cloudy
12:55 PM46.4 °F10.4 °F23 %30.13 in10.0 miSSW (200°)17.3 mph29.9 mphMostly Cloudy
2:50 PM44.6 °F15.8 °F31 %30.11 in10.0 miSSW (200°)17.3 mph31.1 mphMostly Cloudy
2:55 PM46.4 °F14.0 °F27 %30.11 in10.0 miSSW (200°)21.9 mph34.5 mphMostly Cloudy
4:55 PM41.0 °F19.4 °F42 %30.12 in10.0 miSW (220°)15.0 mph19.6 mphScattered Clouds
5:15 PM41.0 °F23.0 °F49 %30.12 in10.0 miSW (230°)12.7 mphClear
5:35 PM39.2 °F21.2 °F49 %30.12 in10.0 miWSW (240°)6.9 mphClear
5:55 PM41.0 °F19.4 °F42 %30.12 in10.0 miWSW (240°)4.6 mphClear
6:15 PM39.2 °F21.2 °F49 %30.12 in10.0 miWSW (240°)6.9 mphClear
6:35 PM39.2 °F21.2 °F49 %30.15 in10.0 miWSW (240°)6.9 mphPartly Cloudy
6:55 PM39.2 °F23.0 °F52 %30.15 in10.0 miSSW (210°)19.6 mph26.5 mphClear
7:15 PM39.2 °F23.0 °F52 %30.16 in10.0 miSW (220°)13.8 mph19.6 mphClear
7:35 PM39.2 °F24.8 °F56 %30.16 in10.0 miSW (230°)15.0 mph21.9 mphPartly Cloudy
7:55 PM37.4 °F24.8 °F60 %30.15 in10.0 miWSW (240°)16.1 mphScattered Clouds
8:15 PM37.4 °F26.6 °F65 %30.16 in10.0 miWSW (240°)13.8 mphPartly Cloudy
8:35 PM37.4 °F26.6 °F65 %30.16 in10.0 miWSW (250°)12.7 mphScattered Clouds
8:55 PM37.4 °F26.6 °F65 %30.16 in10.0 miWest (260°)11.5 mphPartly Cloudy
9:15 PM37.4 °F26.6 °F65 %30.15 in10.0 miWest (280°)11.5 mphClear
9:35 PM35.6 °F28.4 °F75 %30.15 in10.0 miWest (270°)11.5 mphMostly Cloudy
9:55 PM35.6 °F28.4 °F75 %30.17 in10.0 miNNE (20°)4.6 mphMostly Cloudy
10:15 PM35.6 °F28.4 °F75 %30.17 in10.0 miNE (40°)4.6 mphOvercast
10:35 PM33.8 °F28.4 °F81 %30.17 in10.0 miNNW (340°)4.6 mphOvercast
10:55 PM33.8 °F30.2 °F87 %30.16 in10.0 miCalmMostly Cloudy
11:15 PM33.8 °F28.4 °F81 %30.17 in10.0 miCalmScattered Clouds
11:35 PM33.8 °F28.4 °F81 %30.17 in10.0 miCalmMostly Cloudy
11:55 PM33.8 °F28.4 °F81 %30.17 in10.0 miCalmOvercast
Hourly data recorded from KTRK, located miles away from Hobart Mills, California







STORIES FROM OUR PARTNERS